| time (UTC) | temp C | wind direction | speed KPH | gust KPH | rain 1hr cm | rain 24hr cm | rain mn cm | humidity % | barometer mb |
| 20260507151502 | 16 | 360 | 0.0 | 3.2 | 0.00 | 0.30 | 0.08 | 55 | 1003.0 |
| 20260507151001 | 15 | 360 | 0.0 | 4.8 | 0.00 | 0.30 | 0.08 | 54 | 1003.0 |
| 20260507150501 | 15 | 360 | 0.0 | 4.8 | 0.00 | 0.30 | 0.08 | 53 | 1003.2 |
| 20260507150101 | 15 | 360 | 0.0 | 1.6 | 0.00 | 0.30 | 0.08 | 55 | 1003.2 |
| 20260507145557 | 15 | 360 | 0.0 | 1.6 | 0.00 | 0.30 | 0.08 | 60 | 1003.2 |
| 20260507145059 | 15 | 360 | 0.0 | 0.0 | 0.00 | 0.30 | 0.08 | 60 | 1003.3 |
| 20260507144600 | 15 | 360 | 0.0 | 0.0 | 0.00 | 0.30 | 0.08 | 60 | 1003.3 |
| 20260507144056 | 15 | 360 | 0.0 | 9.7 | 0.00 | 0.30 | 0.08 | 60 | 1003.4 |
| 20260507143553 | 14 | 360 | 0.0 | 9.7 | 0.00 | 0.30 | 0.08 | 63 | 1003.3 |
| 20260507143100 | 14 | 360 | 0.0 | 8.0 | 0.00 | 0.30 | 0.08 | 64 | 1003.3 |
| 20260507142553 | 14 | 360 | 0.0 | 1.6 | 0.00 | 0.30 | 0.08 | 65 | 1003.4 |
| 20260507142050 | 13 | 360 | 0.0 | 6.4 | 0.00 | 0.30 | 0.08 | 66 | 1003.4 |
| 20260507141550 | 13 | 360 | 0.0 | 6.4 | 0.00 | 0.30 | 0.08 | 68 | 1003.5 |
| 20260507141050 | 13 | 360 | 0.0 | 1.6 | 0.00 | 0.30 | 0.08 | 71 | 1003.4 |
| 20260507140549 | 13 | 360 | 0.0 | 3.2 | 0.00 | 0.30 | 0.08 | 67 | 1003.4 |
| 20260507140047 | 13 | 360 | 0.0 | 3.2 | 0.00 | 0.30 | 0.08 | 70 | 1003.5 |
| 20260507135547 | 13 | 360 | 0.0 | 0.0 | 0.00 | 0.30 | 0.08 | 71 | 1003.4 |
| 20260507135046 | 13 | 360 | 0.0 | 8.0 | 0.00 | 0.30 | 0.08 | 72 | 1003.3 |
| 20260507134548 | 12 | 360 | 0.0 | 8.0 | 0.00 | 0.30 | 0.08 | 71 | 1003.2 |
| 20260507134046 | 12 | 360 | 0.0 | 0.0 | 0.00 | 0.30 | 0.08 | 72 | 1003.3 |
| 20260507133546 | 12 | 360 | 0.0 | 0.0 | 0.00 | 0.30 | 0.08 | 74 | 1003.3 |
| 20260507133050 | 12 | 360 | 0.0 | 0.0 | 0.00 | 0.30 | 0.08 | 73 | 1003.3 |
| 20260507132543 | 12 | 360 | 0.0 | 1.6 | 0.00 | 0.30 | 0.08 | 76 | 1003.4 |
| 20260507132043 | 11 | 360 | 0.0 | 4.8 | 0.00 | 0.30 | 0.08 | 78 | 1003.5 |
| 20260507131543 | 11 | 34 | 0.0 | 4.8 | 0.00 | 0.30 | 0.08 | 80 | 1003.5 |
| 20260507131042 | 11 | 360 | 0.0 | 4.8 | 0.00 | 0.30 | 0.08 | 79 | 1003.5 |
| 20260507130543 | 11 | 360 | 0.0 | 8.0 | 0.00 | 0.30 | 0.08 | 81 | 1003.6 |
| 20260507130042 | 10 | 360 | 0.0 | 8.0 | 0.00 | 0.30 | 0.08 | 81 | 1003.6 |
| 20260507125538 | 10 | 360 | 0.0 | 3.2 | 0.00 | 0.30 | 0.08 | 82 | 1003.5 |
| 20260507125036 | 10 | 360 | 0.0 | 4.8 | 0.00 | 0.30 | 0.08 | 83 | 1003.5 |
| 20260507124540 | 10 | 360 | 0.0 | 8.0 | 0.00 | 0.30 | 0.08 | 85 | 1003.6 |
| 20260507124036 | 10 | 323 | 0.0 | 8.0 | 0.00 | 0.30 | 0.08 | 88 | 1003.6 |
| 20260507123536 | 9 | 360 | 0.0 | 1.6 | 0.00 | 0.30 | 0.08 | 89 | 1003.7 |
| 20260507123035 | 9 | 255 | 0.0 | 11.3 | 0.00 | 0.30 | 0.08 | 90 | 1003.7 |
| 20260507122535 | 9 | 227 | 0.0 | 11.3 | 0.00 | 0.30 | 0.08 | 91 | 1003.7 |
| 20260507122035 | 9 | 264 | 0.0 | 8.0 | 0.00 | 0.30 | 0.08 | 92 | 1003.7 |
| 20260507121535 | 9 | 303 | 0.0 | 8.0 | 0.00 | 0.30 | 0.08 | 92 | 1003.7 |
| 20260507121036 | 9 | 230 | 0.0 | 0.0 | 0.00 | 0.30 | 0.08 | 92 | 1003.7 |
| 20260507120533 | 9 | 229 | 0.0 | 0.0 | 0.00 | 0.30 | 0.08 | 92 | 1003.8 |
| 20260507120033 | 8 | 227 | 0.0 | 0.0 | 0.00 | 0.30 | 0.08 | 92 | 1003.7 |
| 20260507115532 | 8 | 274 | 0.0 | 0.0 | 0.00 | 0.30 | 0.08 | 92 | 1003.6 |
| 20260507115031 | 8 | 273 | 0.0 | 0.0 | 0.00 | 0.30 | 0.08 | 92 | 1003.5 |
| 20260507114553 | 8 | 224 | 0.0 | 0.0 | 0.00 | 0.30 | 0.08 | 92 | 1003.6 |
| 20260507114031 | 8 | 215 | 0.0 | 0.0 | 0.00 | 0.30 | 0.08 | 92 | 1003.6 |
| 20260507113531 | 8 | 216 | 0.0 | 0.0 | 0.00 | 0.30 | 0.08 | 92 | 1003.6 |
| 20260507113057 | 8 | 209 | 0.0 | 0.0 | 0.00 | 0.30 | 0.08 | 92 | 1003.6 |
| 20260507112530 | 8 | 209 | 0.0 | 0.0 | 0.00 | 0.30 | 0.08 | 92 | 1003.5 |
| 20260507112028 | 8 | 209 | 0.0 | 0.0 | 0.00 | 0.30 | 0.08 | 92 | 1003.5 |
| 20260507111537 | 8 | 209 | 0.0 | 0.0 | 0.00 | 0.30 | 0.08 | 92 | 1003.5 |
| 20260507111026 | 8 | 209 | 0.0 | 0.0 | 0.00 | 0.30 | 0.08 | 92 | 1003.6 |
| 20260507110525 | 8 | 313 | 0.0 | 0.0 | 0.00 | 0.30 | 0.08 | 92 | 1003.4 |
| 20260507110025 | 8 | 348 | 0.0 | 0.0 | 0.00 | 0.30 | 0.08 | 92 | 1003.3 |
| 20260507105524 | 8 | 348 | 0.0 | 0.0 | 0.00 | 0.30 | 0.08 | 92 | 1003.1 |
| 20260507105022 | 8 | 360 | 0.0 | 0.0 | 0.00 | 0.30 | 0.08 | 92 | 1003.1 |
| 20260507104522 | 8 | 242 | 0.0 | 0.0 | 0.00 | 0.30 | 0.08 | 92 | 1003.4 |
| 20260507104022 | 8 | 242 | 0.0 | 0.0 | 0.00 | 0.30 | 0.08 | 91 | 1003.3 |
| 20260507103522 | 8 | 242 | 0.0 | 0.0 | 0.00 | 0.30 | 0.08 | 92 | 1003.4 |
| 20260507103025 | 8 | 251 | 0.0 | 0.0 | 0.00 | 0.30 | 0.08 | 91 | 1003.4 |
| 20260507102520 | 8 | 255 | 0.0 | 0.0 | 0.00 | 0.30 | 0.08 | 91 | 1003.2 |
| 20260507102020 | 8 | 255 | 0.0 | 0.0 | 0.00 | 0.30 | 0.08 | 91 | 1003.0 |
| 20260507101520 | 8 | 255 | 0.0 | 0.0 | 0.00 | 0.30 | 0.08 | 91 | 1002.8 |
| 20260507101023 | 8 | 303 | 0.0 | 0.0 | 0.03 | 0.30 | 0.08 | 91 | 1002.8 |
| 20260507100518 | 8 | 303 | 0.0 | 0.0 | 0.03 | 0.30 | 0.08 | 91 | 1002.7 |
| 20260507100017 | 8 | 303 | 0.0 | 0.0 | 0.03 | 0.30 | 0.08 | 91 | 1002.7 |
| 20260507095517 | 8 | 291 | 0.0 | 0.0 | 0.03 | 0.30 | 0.08 | 90 | 1002.5 |
| 20260507095017 | 8 | 269 | 0.0 | 0.0 | 0.03 | 0.30 | 0.08 | 90 | 1002.8 |
| 20260507094517 | 8 | 267 | 0.0 | 0.0 | 0.03 | 0.30 | 0.08 | 90 | 1002.8 |
| 20260507094016 | 8 | 267 | 0.0 | 0.0 | 0.05 | 0.30 | 0.08 | 90 | 1002.5 |
| 20260507093517 | 8 | 275 | 0.0 | 0.0 | 0.05 | 0.30 | 0.08 | 90 | 1002.5 |
| 20260507093016 | 8 | 275 | 0.0 | 0.0 | 0.05 | 0.30 | 0.08 | 90 | 1002.6 |
| 20260507092517 | 8 | 275 | 0.0 | 0.0 | 0.05 | 0.30 | 0.08 | 89 | 1002.6 |
| 20260507092015 | 8 | 259 | 0.0 | 0.0 | 0.05 | 0.30 | 0.08 | 89 | 1002.9 |
| 20260507091514 | 8 | 259 | 0.0 | 0.0 | 0.03 | 0.28 | 0.05 | 89 | 1003.0 |
| 20260507091014 | 8 | 259 | 0.0 | 0.0 | 0.03 | 0.28 | 0.05 | 89 | 1002.8 |
| 20260507090516 | 8 | 259 | 0.0 | 0.0 | 0.03 | 0.28 | 0.05 | 89 | 1002.8 |
| 20260507090013 | 8 | 258 | 0.0 | 0.0 | 0.03 | 0.28 | 0.05 | 89 | 1003.0 |
| 20260507085514 | 8 | 331 | 0.0 | 0.0 | 0.03 | 0.28 | 0.05 | 89 | 1003.2 |
| 20260507085013 | 8 | 314 | 0.0 | 0.0 | 0.03 | 0.28 | 0.05 | 88 | 1003.3 |
| 20260507084512 | 8 | 314 | 0.0 | 0.0 | 0.03 | 0.28 | 0.05 | 88 | 1003.2 |
| 20260507084010 | 9 | 314 | 0.0 | 0.0 | 0.00 | 0.25 | 0.03 | 88 | 1003.1 |
| 20260507083510 | 9 | 304 | 0.0 | 0.0 | 0.00 | 0.25 | 0.03 | 88 | 1003.0 |
| 20260507083010 | 9 | 304 | 0.0 | 0.0 | 0.00 | 0.25 | 0.03 | 88 | 1003.0 |
| 20260507082510 | 9 | 266 | 0.0 | 0.0 | 0.03 | 0.25 | 0.03 | 88 | 1002.8 |
| 20260507082009 | 9 | 261 | 0.0 | 0.0 | 0.03 | 0.25 | 0.03 | 87 | 1003.0 |
| 20260507081508 | 9 | 298 | 0.0 | 0.0 | 0.03 | 0.25 | 0.03 | 87 | 1002.9 |
| 20260507081007 | 9 | 274 | 0.0 | 0.0 | 0.03 | 0.25 | 0.03 | 87 | 1002.8 |
| 20260507080510 | 9 | 274 | 0.0 | 0.0 | 0.03 | 0.25 | 0.03 | 87 | 1002.6 |
| 20260507080006 | 10 | 274 | 0.0 | 0.0 | 0.03 | 0.25 | 0.03 | 86 | 1002.4 |
| 20260507075505 | 10 | 274 | 0.0 | 0.0 | 0.03 | 0.25 | 0.03 | 86 | 1002.7 |
| 20260507075004 | 10 | 360 | 0.0 | 0.0 | 0.03 | 0.25 | 0.03 | 86 | 1002.9 |
| 20260507074503 | 10 | 316 | 0.0 | 0.0 | 0.03 | 0.25 | 0.03 | 86 | 1002.8 |
| 20260507074004 | 10 | 215 | 0.0 | 0.0 | 0.03 | 0.25 | 0.03 | 85 | 1002.9 |
| 20260507073503 | 10 | 214 | 0.0 | 0.0 | 0.03 | 0.25 | 0.03 | 85 | 1002.8 |
| 20260507073001 | 10 | 249 | 0.0 | 0.0 | 0.03 | 0.25 | 0.03 | 85 | 1002.5 |
| 20260507072501 | 10 | 68 | 0.0 | 0.0 | 0.00 | 0.23 | 0.00 | 84 | 1002.6 |
| 20260507072059 | 10 | 355 | 0.0 | 1.6 | 0.00 | 0.23 | 0.00 | 84 | 1002.8 |
| 20260507071558 | 10 | 270 | 0.0 | 1.6 | 0.00 | 0.23 | 0.00 | 85 | 1002.6 |
| 20260507071058 | 11 | 360 | 0.0 | 0.0 | 0.00 | 0.23 | 0.00 | 85 | 1002.2 |
| 20260507070600 | 11 | 63 | 0.0 | 0.0 | 0.00 | 0.23 | 0.00 | 85 | 1002.1 |
| 20260507070104 | 11 | 249 | 0.0 | 0.0 | 0.00 | 0.23 | 0.00 | 85 | 1002.1 |
| 20260507065558 | 11 | 296 | 0.0 | 0.0 | 0.00 | 0.23 | 0.00 | 86 | 1002.1 |
| 20260507065054 | 11 | 256 | 0.0 | 0.0 | 0.00 | 0.23 | 0.00 | 85 | 1002.0 |
| 20260507064555 | 11 | 271 | 0.0 | 0.0 | 0.00 | 0.23 | 0.00 | 86 | 1001.9 |
| 20260507064054 | 11 | 269 | 0.0 | 9.7 | 0.00 | 0.23 | 0.00 | 86 | 1002.0 |
| 20260507063553 | 11 | 270 | 0.0 | 9.7 | 0.00 | 0.23 | 0.00 | 86 | 1001.9 |
| 20260507063052 | 11 | 239 | 0.0 | 0.0 | 0.00 | 0.23 | 0.00 | 87 | 1002.0 |
| 20260507062551 | 11 | 296 | 0.0 | 0.0 | 0.00 | 0.23 | 0.00 | 88 | 1002.1 |
| 20260507062050 | 11 | 349 | 0.0 | 1.6 | 0.00 | 0.23 | 0.00 | 88 | 1002.2 |
| 20260507061550 | 11 | 349 | 0.0 | 1.6 | 0.00 | 0.23 | 0.00 | 88 | 1002.2 |
| 20260507061052 | 12 | 360 | 0.0 | 0.0 | 0.00 | 0.23 | 0.00 | 88 | 1002.3 |
| 20260507060553 | 12 | 244 | 0.0 | 0.0 | 0.00 | 0.23 | 0.00 | 88 | 1002.1 |
| 20260507060056 | 12 | 242 | 0.0 | 0.0 | 0.00 | 0.23 | 0.00 | 88 | 1002.0 |
| 20260507055547 | 12 | 242 | 0.0 | 0.0 | 0.00 | 0.23 | 0.00 | 88 | 1002.0 |
| 20260507055048 | 12 | 242 | 0.0 | 0.0 | 0.00 | 0.23 | 0.00 | 88 | 1002.2 |
| 20260507054546 | 12 | 227 | 0.0 | 0.0 | 0.00 | 0.23 | 0.00 | 88 | 1002.1 |
| 20260507054049 | 12 | 227 | 0.0 | 0.0 | 0.00 | 0.23 | 0.00 | 88 | 1002.2 |
| 20260507053546 | 12 | 269 | 0.0 | 0.0 | 0.00 | 0.23 | 0.00 | 88 | 1002.3 |
| 20260507053046 | 12 | 311 | 0.0 | 0.0 | 0.00 | 0.23 | 0.00 | 89 | 1002.2 |
| 20260507052547 | 12 | 281 | 0.0 | 6.4 | 0.00 | 0.23 | 0.00 | 89 | 1002.3 |
| 20260507052045 | 12 | 163 | 0.0 | 6.4 | 0.00 | 0.23 | 0.00 | 89 | 1002.4 |
| 20260507051544 | 12 | 16 | 0.0 | 1.6 | 0.00 | 0.23 | 0.00 | 89 | 1002.3 |
| 20260507051044 | 12 | 257 | 0.0 | 4.8 | 0.00 | 0.23 | 0.00 | 90 | 1002.2 |
| 20260507050544 | 12 | 14 | 0.0 | 4.8 | 0.00 | 0.23 | 0.00 | 90 | 1002.3 |
| 20260507050043 | 12 | 313 | 0.0 | 0.0 | 0.00 | 0.23 | 0.00 | 90 | 1002.1 |
| 20260507045544 | 12 | 45 | 0.0 | 0.0 | 0.00 | 0.23 | 0.00 | 90 | 1002.2 |
| 20260507045040 | 12 | 184 | 0.0 | 4.8 | 0.00 | 0.23 | 0.00 | 91 | 1002.2 |
| 20260507044541 | 12 | 207 | 0.0 | 8.0 | 0.00 | 0.23 | 0.00 | 91 | 1002.1 |
| 20260507044038 | 13 | 267 | 0.0 | 8.0 | 0.00 | 0.23 | 0.00 | 91 | 1002.4 |
| 20260507043537 | 13 | 254 | 0.0 | 9.7 | 0.00 | 0.23 | 0.00 | 92 | 1002.2 |
| 20260507043048 | 13 | 360 | 0.0 | 9.7 | 0.00 | 0.23 | 0.00 | 92 | 1002.2 |
| 20260507042535 | 13 | 315 | 0.0 | 6.4 | 0.00 | 0.23 | 0.00 | 92 | 1002.1 |
| 20260507042037 | 13 | 327 | 0.0 | 6.4 | 0.00 | 0.23 | 0.00 | 93 | 1002.1 |
| 20260507041534 | 13 | 238 | 0.0 | 4.8 | 0.00 | 0.23 | 0.00 | 93 | 1002.1 |
| 20260507041034 | 13 | 263 | 0.0 | 3.2 | 0.00 | 0.23 | 0.00 | 93 | 1002.2 |
| 20260507040533 | 13 | 252 | 0.0 | 3.2 | 0.00 | 0.23 | 0.00 | 93 | 1002.2 |
| 20260507040031 | 13 | 253 | 0.0 | 4.8 | 0.00 | 0.23 | 0.00 | 93 | 1002.1 |
| 20260507035530 | 13 | 254 | 0.0 | 8.0 | 0.00 | 0.23 | 0.23 | 93 | 1002.1 |
| 20260507035030 | 14 | 261 | 0.0 | 8.0 | 0.00 | 0.23 | 0.23 | 94 | 1002.2 |
| 20260507034534 | 14 | 281 | 0.0 | 11.3 | 0.00 | 0.23 | 0.23 | 94 | 1002.3 |
| 20260507034031 | 14 | 279 | 1.6 | 11.3 | 0.00 | 0.23 | 0.23 | 94 | 1002.2 |
| 20260507033529 | 14 | 236 | 0.0 | 3.2 | 0.00 | 0.23 | 0.23 | 94 | 1002.1 |
| 20260507033029 | 14 | 264 | 0.0 | 11.3 | 0.03 | 0.23 | 0.23 | 94 | 1001.9 |
| 20260507032530 | 14 | 272 | 0.0 | 6.4 | 0.03 | 0.23 | 0.23 | 94 | 1001.9 |
| 20260507032029 | 14 | 274 | 0.0 | 6.4 | 0.03 | 0.23 | 0.23 | 94 | 1001.7 |
| 20260507031529 | 14 | 201 | 0.0 | 3.2 | 0.03 | 0.23 | 0.23 | 94 | 1001.6 |
| 20260507031029 | 14 | 254 | 0.0 | 6.4 | 0.03 | 0.23 | 0.23 | 94 | 1001.7 |
| 20260507030531 | 14 | 269 | 0.0 | 6.4 | 0.03 | 0.23 | 0.23 | 94 | 1001.6 |
| 20260507030028 | 14 | 229 | 0.0 | 6.4 | 0.03 | 0.23 | 0.23 | 94 | 1001.4 |
| 20260507025528 | 14 | 213 | 0.0 | 6.4 | 0.03 | 0.23 | 0.23 | 94 | 1001.3 |
| 20260507025030 | 14 | 210 | 0.0 | 3.2 | 0.03 | 0.23 | 0.23 | 94 | 1001.4 |
| 20260507024528 | 14 | 244 | 0.0 | 6.4 | 0.03 | 0.23 | 0.23 | 94 | 1001.4 |
| 20260507024028 | 14 | 245 | 0.0 | 6.4 | 0.03 | 0.23 | 0.23 | 94 | 1001.1 |
| 20260507023530 | 14 | 245 | 0.0 | 6.4 | 0.03 | 0.23 | 0.23 | 94 | 1001.1 |
| 20260507023028 | 14 | 232 | 0.0 | 6.4 | 0.00 | 0.20 | 0.20 | 94 | 1001.2 |
| 20260507022528 | 14 | 232 | 0.0 | 6.4 | 0.00 | 0.20 | 0.20 | 94 | 1001.3 |
| 20260507022030 | 14 | 229 | 0.0 | 12.9 | 0.00 | 0.20 | 0.20 | 94 | 1001.3 |
| 20260507021527 | 14 | 211 | 0.0 | 12.9 | 0.00 | 0.20 | 0.20 | 94 | 1001.4 |
| 20260507021030 | 14 | 217 | 0.0 | 6.4 | 0.00 | 0.20 | 0.20 | 94 | 1001.2 |
| 20260507020527 | 14 | 238 | 0.0 | 6.4 | 0.00 | 0.20 | 0.20 | 94 | 1001.2 |
| 20260507020043 | 14 | 202 | 0.0 | 3.2 | 0.00 | 0.20 | 0.20 | 94 | 1001.2 |
| 20260507015526 | 14 | 317 | 0.0 | 4.8 | 0.00 | 0.20 | 0.20 | 94 | 1001.3 |
| 20260507015026 | 14 | 229 | 0.0 | 4.8 | 0.00 | 0.20 | 0.20 | 94 | 1001.2 |
| 20260507014526 | 14 | 235 | 0.0 | 4.8 | 0.00 | 0.20 | 0.20 | 94 | 1001.3 |
| 20260507014025 | 14 | 193 | 0.0 | 1.6 | 0.00 | 0.20 | 0.20 | 94 | 1001.3 |
| 20260507013527 | 14 | 178 | 0.0 | 6.4 | 0.00 | 0.20 | 0.20 | 94 | 1001.1 |
| 20260507013027 | 14 | 159 | 0.0 | 8.0 | 0.00 | 0.20 | 0.20 | 94 | 1001.1 |
| 20260507012529 | 14 | 184 | 0.0 | 19.3 | 0.00 | 0.20 | 0.20 | 94 | 1001.2 |
| 20260507012026 | 14 | 184 | 0.0 | 19.3 | 0.00 | 0.20 | 0.20 | 94 | 1001.1 |
| 20260507011539 | 14 | 227 | 0.0 | 9.7 | 0.00 | 0.20 | 0.20 | 94 | 1001.2 |
| 20260507011025 | 14 | 109 | 0.0 | 9.7 | 0.00 | 0.20 | 0.20 | 94 | 1001.3 |
| 20260507010525 | 14 | 220 | 0.0 | 9.7 | 0.00 | 0.20 | 0.20 | 94 | 1001.4 |
| 20260507010029 | 14 | 269 | 1.6 | 9.7 | 0.00 | 0.20 | 0.20 | 94 | 1001.4 |
| 20260507005524 | 14 | 348 | 0.0 | 6.4 | 0.00 | 0.20 | 0.20 | 94 | 1001.4 |
| 20260507005024 | 14 | 154 | 0.0 | 11.3 | 0.00 | 0.20 | 0.20 | 94 | 1001.4 |
| 20260507004524 | 14 | 243 | 0.0 | 11.3 | 0.00 | 0.20 | 0.20 | 94 | 1001.4 |
| 20260507004024 | 14 | 188 | 0.0 | 4.8 | 0.00 | 0.20 | 0.20 | 94 | 1001.4 |
| 20260507003526 | 14 | 194 | 0.0 | 8.0 | 0.00 | 0.20 | 0.20 | 94 | 1001.4 |
| 20260507003024 | 14 | 285 | 0.0 | 4.8 | 0.00 | 0.20 | 0.20 | 94 | 1001.4 |
| 20260507002524 | 14 | 121 | 0.0 | 1.6 | 0.00 | 0.20 | 0.20 | 94 | 1001.4 |
| 20260507002024 | 14 | 261 | 0.0 | 4.8 | 0.00 | 0.20 | 0.20 | 94 | 1001.4 |
| 20260507001553 | 14 | 236 | 0.0 | 4.8 | 0.00 | 0.20 | 0.20 | 94 | 1001.3 |
| 20260507001026 | 14 | 207 | 0.0 | 3.2 | 0.00 | 0.20 | 0.20 | 94 | 1001.3 |
| 20260507000523 | 14 | 213 | 0.0 | 12.9 | 0.00 | 0.20 | 0.20 | 93 | 1001.3 |
| 20260507000024 | 14 | 231 | 0.0 | 12.9 | 0.03 | 0.20 | 0.20 | 94 | 1001.1 |
| 20260506235526 | 14 | 191 | 0.0 | 1.6 | 0.03 | 0.20 | 0.20 | 94 | 1001.0 |
| 20260506235023 | 14 | 157 | 0.0 | 3.2 | 0.05 | 0.20 | 0.20 | 93 | 1000.9 |
| 20260506234522 | 14 | 154 | 0.0 | 3.2 | 0.05 | 0.20 | 0.20 | 93 | 1001.0 |
| 20260506234022 | 14 | 207 | 0.0 | 3.2 | 0.08 | 0.20 | 0.20 | 93 | 1001.0 |
| 20260506233522 | 14 | 232 | 0.0 | 4.8 | 0.08 | 0.20 | 0.20 | 93 | 1001.0 |
| 20260506233023 | 14 | 213 | 0.0 | 4.8 | 0.08 | 0.20 | 0.20 | 93 | 1001.0 |
| 20260506232522 | 14 | 170 | 0.0 | 3.2 | 0.08 | 0.20 | 0.20 | 93 | 1001.1 |
| 20260506232022 | 15 | 190 | 0.0 | 3.2 | 0.08 | 0.20 | 0.20 | 93 | 1000.9 |
| 20260506231522 | 15 | 195 | 0.0 | 1.6 | 0.08 | 0.20 | 0.20 | 93 | 1000.9 |
| 20260506231025 | 15 | 198 | 0.0 | 1.6 | 0.08 | 0.20 | 0.20 | 93 | 1000.9 |
| 20260506230524 | 15 | 82 | 0.0 | 1.6 | 0.08 | 0.20 | 0.20 | 93 | 1000.9 |
| 20260506230020 | 15 | 104 | 0.0 | 1.6 | 0.05 | 0.18 | 0.18 | 93 | 1001.0 |
| 20260506225520 | 15 | 218 | 0.0 | 8.0 | 0.05 | 0.18 | 0.18 | 93 | 1000.9 |
| 20260506225019 | 15 | 219 | 0.0 | 8.0 | 0.03 | 0.15 | 0.15 | 93 | 1001.0 |
| 20260506224519 | 15 | 195 | 0.0 | 0.0 | 0.03 | 0.15 | 0.15 | 92 | 1001.1 |
| 20260506224019 | 15 | 165 | 0.0 | 4.8 | 0.00 | 0.13 | 0.13 | 92 | 1001.1 |
| 20260506223518 | 15 | 163 | 0.0 | 4.8 | 0.00 | 0.13 | 0.13 | 92 | 1001.2 |
| 20260506223027 | 15 | 186 | 0.0 | 0.0 | 0.00 | 0.13 | 0.13 | 92 | 1001.1 |
| 20260506222520 | 15 | 209 | 0.0 | 0.0 | 0.00 | 0.13 | 0.13 | 92 | 1001.1 |
| 20260506222017 | 15 | 180 | 0.0 | 0.0 | 0.00 | 0.13 | 0.13 | 92 | 1001.2 |
| 20260506221517 | 15 | 105 | 0.0 | 0.0 | 0.00 | 0.13 | 0.13 | 92 | 1001.2 |
| 20260506221018 | 15 | 171 | 0.0 | 3.2 | 0.00 | 0.13 | 0.13 | 92 | 1001.3 |
| 20260506220516 | 15 | 163 | 0.0 | 3.2 | 0.00 | 0.13 | 0.13 | 91 | 1001.3 |
| 20260506220016 | 15 | 165 | 0.0 | 0.0 | 0.00 | 0.13 | 0.13 | 91 | 1001.4 |
| 20260506215515 | 15 | 200 | 0.0 | 11.3 | 0.00 | 0.13 | 0.13 | 91 | 1001.4 |
| 20260506215015 | 15 | 139 | 0.0 | 11.3 | 0.00 | 0.13 | 0.13 | 91 | 1001.4 |
| 20260506214515 | 15 | 199 | 0.0 | 0.0 | 0.00 | 0.13 | 0.13 | 91 | 1001.4 |
| 20260506214014 | 15 | 211 | 0.0 | 1.6 | 0.00 | 0.13 | 0.13 | 91 | 1001.5 |
| 20260506213517 | 15 | 130 | 0.0 | 6.4 | 0.00 | 0.13 | 0.13 | 91 | 1001.6 |
| 20260506213012 | 15 | 162 | 0.0 | 4.8 | 0.00 | 0.13 | 0.13 | 91 | 1001.7 |
| 20260506212512 | 15 | 199 | 0.0 | 4.8 | 0.00 | 0.13 | 0.13 | 91 | 1001.7 |
| 20260506212016 | 15 | 168 | 0.0 | 4.8 | 0.00 | 0.13 | 0.13 | 91 | 1001.7 |
| 20260506211512 | 15 | 205 | 0.0 | 0.0 | 0.03 | 0.13 | 0.13 | 91 | 1001.7 |
| 20260506211011 | 15 | 211 | 0.0 | 0.0 | 0.03 | 0.13 | 0.13 | 91 | 1001.7 |
| 20260506210517 | 15 | 263 | 0.0 | 3.2 | 0.03 | 0.13 | 0.13 | 90 | 1001.8 |
| 20260506210019 | 15 | 290 | 0.0 | 6.4 | 0.03 | 0.13 | 0.13 | 90 | 1001.9 |
| 20260506205509 | 15 | 291 | 0.0 | 6.4 | 0.03 | 0.13 | 0.13 | 90 | 1001.9 |
| 20260506205012 | 15 | 223 | 0.0 | 11.3 | 0.03 | 0.13 | 0.13 | 90 | 1001.8 |
| 20260506204509 | 15 | 172 | 0.0 | 9.7 | 0.03 | 0.13 | 0.13 | 90 | 1001.9 |
| 20260506204009 | 15 | 209 | 0.0 | 6.4 | 0.03 | 0.13 | 0.13 | 90 | 1001.9 |
| 20260506203511 | 15 | 200 | 0.0 | 1.6 | 0.03 | 0.13 | 0.13 | 90 | 1001.9 |
| 20260506203010 | 15 | 186 | 0.0 | 4.8 | 0.03 | 0.13 | 0.13 | 90 | 1002.0 |
| 20260506202508 | 15 | 180 | 0.0 | 4.8 | 0.03 | 0.13 | 0.13 | 90 | 1001.9 |
| 20260506202008 | 15 | 192 | 0.0 | 8.0 | 0.03 | 0.10 | 0.10 | 89 | 1002.1 |
| 20260506201510 | 15 | 173 | 0.0 | 8.0 | 0.03 | 0.10 | 0.10 | 89 | 1002.0 |
| 20260506201007 | 15 | 217 | 0.0 | 16.1 | 0.05 | 0.10 | 0.10 | 89 | 1002.0 |
| 20260506200507 | 15 | 129 | 0.0 | 16.1 | 0.05 | 0.10 | 0.10 | 89 | 1002.2 |
| 20260506200006 | 15 | 173 | 0.0 | 4.8 | 0.08 | 0.10 | 0.10 | 89 | 1002.1 |
| 20260506195507 | 15 | 196 | 0.0 | 4.8 | 0.08 | 0.10 | 0.10 | 88 | 1002.0 |
| 20260506195006 | 16 | 258 | 0.0 | 4.8 | 0.08 | 0.10 | 0.10 | 88 | 1002.1 |
| 20260506194507 | 16 | 235 | 0.0 | 6.4 | 0.08 | 0.10 | 0.10 | 87 | 1002.0 |
| 20260506194008 | 16 | 360 | 0.0 | 6.4 | 0.10 | 0.10 | 0.10 | 87 | 1002.0 |
| 20260506193505 | 16 | 360 | 0.0 | 4.8 | 0.10 | 0.10 | 0.10 | 87 | 1002.1 |
| 20260506193005 | 16 | 360 | 0.0 | 6.4 | 0.10 | 0.10 | 0.10 | 86 | 1002.1 |
| 20260506192504 | 16 | 360 | 0.0 | 6.4 | 0.10 | 0.10 | 0.10 | 86 | 1002.1 |
| 20260506192004 | 17 | 179 | 0.0 | 0.0 | 0.08 | 0.08 | 0.08 | 85 | 1002.2 |
| 20260506191507 | 17 | 177 | 0.0 | 6.4 | 0.05 | 0.05 | 0.05 | 84 | 1002.1 |
| 20260506191003 | 17 | 360 | 0.0 | 6.4 | 0.05 | 0.05 | 0.05 | 82 | 1002.1 |
| 20260506190502 | 17 | 360 | 0.0 | 8.0 | 0.05 | 0.05 | 0.05 | 82 | 1002.1 |
| 20260506190002 | 17 | 110 | 0.0 | 8.0 | 0.03 | 0.03 | 0.03 | 80 | 1002.2 |
| 20260506185503 | 18 | 360 | 0.0 | 0.0 | 0.03 | 0.03 | 0.03 | 79 | 1002.3 |
| 20260506185000 | 18 | 163 | 0.0 | 0.0 | 0.03 | 0.03 | 0.03 | 78 | 1002.3 |
| 20260506184503 | 18 | 360 | 0.0 | 0.0 | 0.03 | 0.03 | 0.03 | 76 | 1002.3 |
| 20260506184103 | 18 | 360 | 0.0 | 0.0 | 0.00 | 0.00 | 0.00 | 75 | 1002.3 |
| 20260506183604 | 18 | 196 | 0.0 | 9.7 | 0.00 | 0.00 | 0.00 | 73 | 1002.4 |
| 20260506183109 | 19 | 236 | 0.0 | 14.5 | 0.00 | 0.00 | 0.00 | 71 | 1002.5 |
| 20260506182559 | 19 | 228 | 1.6 | 14.5 | 0.00 | 0.00 | 0.00 | 70 | 1002.6 |
| 20260506182059 | 20 | 240 | 0.0 | 8.0 | 0.00 | 0.00 | 0.00 | 70 | 1002.6 |
| 20260506181604 | 20 | 360 | 0.0 | 11.3 | 0.00 | 0.00 | 0.00 | 68 | 1002.5 |
| 20260506181059 | 20 | 360 | 3.2 | 20.9 | 0.00 | 0.00 | 0.00 | 66 | 1002.5 |
| 20260506180600 | 20 | 360 | 6.4 | 20.9 | 0.00 | 0.00 | 0.00 | 64 | 1002.5 |
| 20260506180100 | 21 | 360 | 0.0 | 6.4 | 0.00 | 0.00 | 0.00 | 63 | 1002.5 |
| 20260506175558 | 21 | 360 | 0.0 | 1.6 | 0.00 | 0.00 | 0.00 | 60 | 1002.7 |
| 20260506175101 | 21 | 360 | 0.0 | 1.6 | 0.00 | 0.00 | 0.00 | 59 | 1002.6 |
| 20260506174558 | 21 | 360 | 0.0 | 1.6 | 0.00 | 0.00 | 0.00 | 59 | 1002.5 |
| 20260506174058 | 21 | 217 | 0.0 | 4.8 | 0.00 | 0.00 | 0.00 | 57 | 1002.5 |
| 20260506173558 | 22 | 128 | 0.0 | 9.7 | 0.00 | 0.00 | 0.00 | 58 | 1002.5 |
| 20260506173109 | 22 | 192 | 0.0 | 9.7 | 0.00 | 0.00 | 0.00 | 57 | 1002.6 |
| 20260506172557 | 22 | 360 | 0.0 | 8.0 | 0.00 | 0.00 | 0.00 | 57 | 1002.5 |
| 20260506172057 | 22 | 360 | 0.0 | 9.7 | 0.00 | 0.00 | 0.00 | 57 | 1002.5 |
| 20260506171557 | 22 | 360 | 0.0 | 9.7 | 0.00 | 0.00 | 0.00 | 57 | 1002.6 |
| 20260506171057 | 22 | 144 | 0.0 | 4.8 | 0.00 | 0.00 | 0.00 | 58 | 1002.7 |
| 20260506170557 | 22 | 360 | 0.0 | 12.9 | 0.00 | 0.00 | 0.00 | 57 | 1002.7 |
| 20260506170108 | 22 | 360 | 0.0 | 16.1 | 0.00 | 0.00 | 0.00 | 56 | 1002.6 |
| 20260506165556 | 22 | 360 | 0.0 | 16.1 | 0.00 | 0.00 | 0.00 | 56 | 1002.9 |
| 20260506165054 | 22 | 360 | 0.0 | 12.9 | 0.00 | 0.00 | 0.00 | 59 | 1002.7 |
| 20260506164613 | 21 | 215 | 0.0 | 8.0 | 0.00 | 0.00 | 0.00 | 60 | 1002.7 |
| 20260506164053 | 21 | 201 | 0.0 | 6.4 | 0.00 | 0.00 | 0.00 | 60 | 1002.8 |
| 20260506163552 | 21 | 192 | 0.0 | 12.9 | 0.00 | 0.00 | 0.00 | 60 | 1003.0 |
| 20260506163059 | 21 | 180 | 0.0 | 12.9 | 0.00 | 0.00 | 0.00 | 60 | 1003.1 |
| 20260506162552 | 21 | 117 | 0.0 | 1.6 | 0.00 | 0.00 | 0.00 | 62 | 1003.2 |
| 20260506162049 | 21 | 146 | 0.0 | 3.2 | 0.00 | 0.00 | 0.00 | 62 | 1003.2 |
| 20260506161550 | 21 | 178 | 0.0 | 12.9 | 0.00 | 0.00 | 0.00 | 62 | 1003.2 |
| 20260506161050 | 21 | 175 | 0.0 | 12.9 | 0.00 | 0.00 | 0.00 | 62 | 1003.4 |
| 20260506160549 | 21 | 236 | 0.0 | 1.6 | 0.00 | 0.00 | 0.00 | 62 | 1003.5 |
| 20260506160055 | 21 | 156 | 0.0 | 0.0 | 0.00 | 0.00 | 0.00 | 63 | 1003.6 |
| 20260506155546 | 21 | 219 | 0.0 | 3.2 | 0.00 | 0.00 | 0.00 | 63 | 1003.6 |
| 20260506155045 | 21 | 182 | 0.0 | 3.2 | 0.00 | 0.00 | 0.00 | 63 | 1003.7 |
| 20260506154547 | 21 | 152 | 0.0 | 3.2 | 0.00 | 0.00 | 0.00 | 64 | 1003.8 |
| 20260506154045 | 21 | 144 | 0.0 | 3.2 | 0.00 | 0.00 | 0.00 | 63 | 1003.9 |
| 20260506153549 | 21 | 207 | 0.0 | 1.6 | 0.00 | 0.00 | 0.00 | 62 | 1003.9 |
| 20260506153043 | 21 | 360 | 0.0 | 9.7 | 0.00 | 0.00 | 0.00 | 62 | 1003.9 |
| 20260506152543 | 21 | 360 | 0.0 | 1.6 | 0.00 | 0.00 | 0.00 | 62 | 1003.9 |
| 20260506152045 | 21 | 360 | 0.0 | 1.6 | 0.00 | 0.00 | 0.00 | 63 | 1004.2 |